Knob Noster, MO

3:08 AM CST on February 10, 2016 (GMT -0600)
Whiteman Air Force Base

Weather History for KSZL - April, 2012

Change the Weather History Date:

Monday, April 2, 2012

  Actual Average Record
Temperature  
Mean Temperature 75 °F -  
Max Temperature 86 °F 60 °F 86 °F (2012)
Min Temperature 64 °F 40 °F 27 °F (2013)
Cooling Degree Days 10    
Growing Degree Days 25 (Base 50)    
Moisture  
Dew Point 61 °F    
Average Humidity 67    
Maximum Humidity 97    
Minimum Humidity 41    
Precipitation  
Precipitation 0.00 in - - ()
Sea Level Pressure  
Sea Level Pressure 29.65 in    
Wind  
Wind Speed 12 mph (South)    
Max Wind Speed 22 mph    
Max Gust Speed 28 mph    
Visibility 10 miles    
Events      
Averages and records for this station are not official NWS values.
T = Trace of Precipitation, MM = Missing Value Source: NWS Daily Summary

Daily Weather History Graph

Daily Weather History Graph

Search for Another Location

Airport or City:

Trip Planner

Search our weather history database for the weather conditions in past years. The results will help you decide how hot, cold, wet, or windy it might be!

Date:

Astronomy

Apr. 02, 2012 Rise Set
Actual Time 6:56 AM CDT 7:39 PM CDT
Civil Twilight 6:29 AM CDT 8:06 PM CDT
Nautical Twilight 5:58 AM CDT 8:37 PM CDT
Astronomical Twilight 5:25 AM CDT 9:10 PM CDT
Moon 3:18 PM CDT (4/2) 4:07 AM CDT (4/2)
Length of Visible Light 13h 36m
Length of Day
12h 42m
Waxing Gibbous, 78% of the Moon is Illuminated
Apr 2
Waxing Gibbous
Apr 6
Full
Apr 13
Last Quarter
Apr 21
New
Apr 29
First Quarter

Hourly Weather History & Observations

Time (CDT) Temp. Heat Index Dew Point Humidity Pressure Visibility Wind Dir Wind Speed Gust Speed Precip Events Conditions
12:55 AM 69.6 °F - 62.8 °F 79% 29.55 in 10.0 mi SSW 12.7 mph - N/A   Clear
1:55 AM 69.1 °F - 63.5 °F 82% 29.56 in 10.0 mi SSW 13.8 mph - N/A   Clear
2:55 AM 70.5 °F - 63.1 °F 77% 29.56 in 10.0 mi SSW 18.4 mph - N/A   Clear
3:55 AM 68.2 °F - 63.7 °F 85% 29.57 in 10.0 mi SSW 11.5 mph - N/A   Partly Cloudy
4:55 AM 65.7 °F - 64.8 °F 97% 29.59 in 10.0 mi South 10.4 mph - N/A   Partly Cloudy
5:55 AM 66.6 °F - 63.9 °F 91% 29.59 in 10.0 mi South 12.7 mph - N/A   Partly Cloudy
6:55 AM 66.0 °F - 64.0 °F 93% 29.61 in 10.0 mi South 13.8 mph - N/A   Partly Cloudy
7:55 AM 67.5 °F - 64.8 °F 91% 29.64 in 10.0 mi SSW 15.0 mph - N/A   Partly Cloudy
8:55 AM 70.5 °F - 65.3 °F 83% 29.65 in 10.0 mi SSW 17.3 mph - N/A   Partly Cloudy
9:55 AM 73.6 °F - 64.8 °F 74% 29.65 in 10.0 mi SSW 21.9 mph 27.6 mph N/A   Partly Cloudy
10:55 AM 76.1 °F - 65.1 °F 69% 29.67 in 10.0 mi SSW 20.7 mph 25.3 mph N/A   Clear
11:55 AM 79.0 °F - 64.4 °F 61% 29.68 in 10.0 mi SSW 16.1 mph 23.0 mph N/A   Clear
12:55 PM 80.8 °F 82.6 °F 65.5 °F 59% 29.69 in 10.0 mi South 16.1 mph - N/A   Clear
1:55 PM 82.9 °F 84.4 °F 64.0 °F 53% 29.69 in 10.0 mi SSW 11.5 mph - N/A   Clear
2:55 PM 84.4 °F 84.8 °F 61.5 °F 46% 29.68 in 10.0 mi SSW 13.8 mph - N/A   Clear
3:55 PM 85.5 °F 85.9 °F 61.9 °F 45% 29.67 in 10.0 mi South 11.5 mph - N/A   Clear
4:55 PM 84.9 °F 84.4 °F 58.6 °F 41% 29.66 in 10.0 mi SSW 10.4 mph - N/A   Clear
5:55 PM 84.2 °F 84.8 °F 61.9 °F 47% 29.67 in 10.0 mi South 5.8 mph - N/A   Clear
6:55 PM 81.5 °F 81.7 °F 58.6 °F 46% 29.68 in 10.0 mi SSE 5.8 mph - N/A   Clear
7:55 PM 76.8 °F - 54.1 °F 45% 29.69 in 10.0 mi SSE 6.9 mph - N/A   Clear
8:29 PM 73.4 °F - 53.6 °F 50% 29.70 in 10.0 mi South 5.8 mph - N/A   Light Drizzle
8:55 PM 72.9 °F - 54.1 °F 52% 29.71 in 10.0 mi Calm Calm - 0.00 in   Clear
9:55 PM 67.8 °F - 56.3 °F 67% 29.73 in 10.0 mi Calm Calm - N/A   Clear
10:55 PM 67.5 °F - 56.3 °F 67% 29.73 in 10.0 mi ESE 4.6 mph - N/A   Clear
11:55 PM 64.9 °F - 57.4 °F 76% 29.73 in 10.0 mi South 3.5 mph - N/A   Clear